User: anonymous   Login
Location: Ocean City
(38.3360°N, 75.0850°W)
Time: 11:01:31
(UTC-05:00)
Language:

SR - Orbit

View from above orbital plane
View from above orbital plane
View from above satellite
View from above satellite

Ground track
Ground track

The orbit data is extracted from the following two-line orbital elements,

1    46U 60007B   19321.91376371 -.00000005 +00000-0 +22090-4 0  9999
2    46 066.6904 260.8036 0217196 288.9423 068.8257 14.49258450108311
Epoch (UTC): 17 November 2019 21:55:49
Eccentricity: 0.0217196
inclination: 66.6904°
perigee height: 574 km
apogee height: 882 km
right ascension of ascending node: 260.8036°
argument of perigee: 288.9423°
revolutions per day: 14.49258450
mean anomaly at epoch: 68.8257°
orbit number at epoch: 10831

The dashed part of the orbit path shows where the satellite is in the earth's shadow,  

DLR